Location: Al Miqallah
(24.2167°N, 32.8833°E)
Time: 13:29:31
(UTC+00:00)

Daily predictions for brighter satellites

Satellite Brightness Start Highest point End
(mag) Time Altitude Azimuth Time Altitude Azimuth Time Altitude Azimuth
Cosmos 1814 Rocket 4.5 16:53:47 10° N 16:58:43 42° ENE 17:03:35 10° SE
Cosmos 1464 Rocket 4.5 16:54:08 10° NNE 16:59:47 39° E 17:05:28 10° SSE
Cosmos 1703 Rocket 3.5 16:55:36 10° S 16:59:54 88° E 17:04:14 10° N
SWIFT 3.5 16:57:19 10° SSW 16:59:58 20° SSE 17:02:38 10° ESE
Cosmos 1656 Rocket 3.8 16:56:35 10° S 17:02:00 53° ESE 17:07:21 10° NNE
Palapa 6 Rocket 4.4 16:56:28 10° W 17:03:45 80° S 17:11:34 10° E
GP-B 4.3 17:00:41 10° NE 17:04:09 23° E 17:07:37 10° SE
Cosmos 1891 Rocket 4.4 17:00:48 10° N 17:06:58 80° E 17:13:00 10° S
Hubble Space Telescope 1.3 17:10:30 10° SW 17:13:59 34° SSE 17:17:29 10° E
CZ-2C R/B 3.7 17:15:20 11° ESE 17:17:37 21° ENE 17:20:06 10° NNE
IRIDIUM 104 4.3 17:12:45 10° S 17:17:58 88° E 17:23:11 10° N
Cosmos 44 4.2 17:17:53 10° SSE 17:21:00 20° ESE 17:24:07 10° ENE
Transit 2A Rocket 4.5 17:17:08 10° S 17:21:19 58° ESE 17:25:32 10° NNE
Cosmos 1328 3.6 17:22:19 10° S 17:25:56 82° W 17:29:34 10° N
SEDSat Delta rocket 3.9 17:24:51 10° WNW 17:29:43 52° SSW 17:34:10 16° SE
Meteor 1-24 Rocket 4.4 17:24:11 10° SSW 17:29:43 56° W 17:35:06 10° N
SJ-6B 3.4 17:27:33 10° S 17:31:01 50° W 17:34:27 10° NNW
Cosmos 2034 Rocket 4.3 17:24:58 10° N 17:31:06 48° E 17:37:10 10° SSE
Tiangong 0.3 17:31:07 10° W 17:33:53 25° NNW 17:36:39 10° NNE
Cosmos 2369 Rocket 2.2 17:30:49 10° S 17:36:22 58° ESE 17:41:57 10° NNE
Cosmos 2082 Rocket 2.5 17:30:56 10° N 17:36:28 49° ENE 17:40:38 17° SE
Cosmos 1300 Rocket 3.7 17:33:41 10° N 17:37:53 50° E 17:41:10 16° SSE
USA 267 3.3 17:33:15 13° SE 17:39:14 90° W 17:45:48 10° NW
CZ-4 R/B 1.1 17:36:23 14° SSE 17:39:23 63° ENE 17:43:02 10° N
Tsikada Rocket 4.0 17:34:25 10° S 17:40:43 73° E 17:47:06 10° N
Cosmos 1777 Rocket 4.0 17:36:25 10° S 17:41:32 59° ESE 17:46:38 10° NNE
Terra 3.7 17:41:13 12° E 17:41:58 12° ENE 17:43:52 10° NE
Cosmos 1461 3.0 17:39:33 10° NNW 17:43:33 66° WSW 17:46:34 16° SSE
Resurs 01 Rocket 2.4 17:39:31 10° S 17:43:48 52° W 17:48:06 10° NNW
Delta 7925 Rocket 3.1 17:41:00 10° WSW 17:45:34 67° SSE 17:49:15 17° E
BREEZE-M R/B 3.1 17:41:49 10° NW 17:46:15 46° SW 17:48:19 19° SSE
Cosmos 1378 Rocket 4.3 17:46:23 24° SE 17:47:46 30° E 17:51:30 10° NNE
USA 186 1.8 17:49:28 38° E 17:49:36 38° ENE 17:52:09 10° N
NATO 3D Rocket 4.0 17:44:26 10° W 17:49:50 66° S 17:54:39 22° ESE
Okean-O 4.4 17:51:56 15° ENE 17:52:05 15° ENE 17:54:30 10° NE
Okean O Rocket 2.8 17:56:56 23° E 17:57:25 23° ENE 18:00:53 10° NNE
Cosmos 2263 4.1 17:54:00 10° S 17:59:39 68° ESE 18:05:15 10° NNE
SPOT 5 3.2 17:56:43 25° SE 17:59:40 58° ENE 18:04:51 10° N
Cosmos 158 Rocket 4.0 17:55:40 10° NNW 18:00:30 71° WSW 18:04:05 18° S
PAYLOAD B 4.1 17:57:56 19° SSE 18:02:00 79° ENE 18:07:30 10° N
CZ-4B R/B 3.7 18:03:45 28° ENE 18:03:45 28° ENE 18:06:37 10° NNE
Cosmos 1606 1.9 18:03:04 10° N 18:06:07 88° E 18:06:26 69° S
Cosmos 1340 Rocket 4.0 18:08:04 10° NNE 18:10:37 26° ENE 18:10:37 26° ENE
Cosmos 1570 Rocket 4.0 18:07:40 10° N 18:12:51 60° ENE 18:14:30 40° SE
Cosmos 1900 4.5 18:14:01 40° SSE 18:15:06 48° ESE 18:19:55 10° NE
Helios 1B rocket 3.4 18:16:58 27° NE 18:16:58 27° NE 18:19:25 10° NNE
ERS-1 Rocket 3.5 18:16:05 37° E 18:16:44 39° ENE 18:21:20 10° N
ADEOS 4.4 18:25:08 18° SSW 18:28:44 46° W 18:33:42 10° NNW
OAO 2 Rocket 3.5 18:25:39 10° WSW 18:30:35 68° NNW 18:33:07 28° NE
Cosmos 990 Rocket 3.8 18:29:23 37° S 18:31:28 81° ESE 18:36:39 10° NNE
CZ-4C R/B 2.6 18:34:30 10° SW 18:38:05 41° WNW 18:42:14 10° NNE
SWIFT 4.3 18:35:50 10° WSW 18:36:43 16° WSW 18:36:43 16° WSW
IRS-1A Rocket 4.2 18:43:25 60° E 18:43:39 61° ENE 18:49:04 10° N
Nadezhda 4 Rocket 4.0 18:45:06 58° ESE 18:45:32 59° E 18:51:44 10° NNE
Helios 1A 3.4 18:42:10 10° N 18:46:01 55° WNW 18:46:02 55° WNW
Aureole 1 Rocket 4.3 18:49:35 48° ENE 18:49:35 48° ENE 18:55:24 10° NNE
Aurora 2 Rocket 4.5 18:43:55 10° SW 18:51:16 40° S 18:51:16 40° S
Palapa 6 Rocket 4.4 18:45:02 10° W 18:52:35 59° SSW 18:53:37 54° SSE
Hubble Space Telescope 2.3 18:50:08 10° W 18:52:05 28° W 18:52:05 28° W
Meteor 1-11 4.1 18:54:26 74° S 18:55:02 87° E 19:00:51 10° N
Cosmos 2221 Rocket 4.1 18:57:47 57° NNW 18:57:47 57° NNW 19:01:32 10° N
Cosmos 2285 Rocket 3.9 18:56:22 62° S 18:57:33 85° ESE 19:03:57 10° NNE
CZ-4B R/B 4.5 18:57:17 25° SW 18:59:23 34° W 19:04:15 10° NW
Ariane H10+ 4.5 18:53:57 10° SW 18:59:31 29° S 18:59:31 29° S
Cosmos 2208 Rocket 4.5 18:59:44 10° NNW 19:04:53 54° WSW 19:05:08 53° WSW
ASTEX 1 4.2 19:00:32 10° N 19:03:45 42° NNE 19:03:45 42° NNE
COSMOS 2406 4.2 19:01:57 10° NW 19:07:11 38° WSW 19:08:18 35° SW
Chandra Rocket (1) 3.3 18:49:05 10° WSW 19:08:39 81° SSE 19:09:46 66° E
Ariane Rocket 4.4 19:14:10 28° NNE 19:14:10 28° NNE 19:16:49 10° N
Terra 3.0 19:19:52 39° WNW 19:19:52 39° WNW 19:23:31 10° NNW
Yuri Rocket 4.5 19:18:04 10° W 19:27:56 80° NNW 19:29:12 66° NE
Okean O Rocket 4.0 19:34:13 18° W 19:34:13 18° W 19:36:31 10° NW
NOSS 3-4 (A) 4.0 19:42:34 10° NNW 19:49:40 80° NW 19:49:40 80° NW
NOSS 3-4 (C) 4.0 19:42:38 10° NNW 19:49:39 79° NW 19:49:39 79° NW
CENTAUR R/B 4.5 23:01:56 20° NNE 23:01:56 20° NNE 23:03:48 10° NNE
SL-16 R/B 4.5 23:03:12 19° NNE 23:03:12 19° NNE 23:04:45 10° NNE
Cosmos 2333 Rocket 4.4 23:09:54 21° NNE 23:09:54 21° NNE 23:11:44 10° NNE
Resurs 1-4 Rocket 4.5 23:14:50 10° NE 23:16:25 18° NE 23:16:25 18° NE
Milstar 3 Cent rocket 4.0 23:27:36 33° ENE 23:27:36 33° ENE 23:30:22 10° ENE
CZ-2D R/B 4.1 23:33:54 10° NNE 23:36:03 23° NE 23:36:03 23° NE
Cosmos 1844 Rocket 4.4 23:37:32 10° N 23:41:05 28° NE 23:41:05 28° NE
Cosmos 2360 Rocket 3.9 23:50:12 27° N 23:50:12 27° N 23:52:44 10° N
